Regional Weather Roundup
Issued by NWS

Home | Current Version | Previous Version | Text Only | Print | Product List | Glossary On
Versions: 1 2 3 4 5 6 7 8 9 10 11 12 13 14 15 16 17 18 19 20 21 22 23 24 25 26 27
000
ASCA42 TJSJ 231410
RWRPR
PUERTO RICO/U.S. VIRGIN ISLANDS HOURLY WEATHER ROUNDUP
NATIONAL WEATHER SERVICE SAN JUAN PR
1000 AM AST MON JAN 23 2017

PRZ001>002-007>008-010-231500-
PUERTO RICO

CITY           SKY/WX    TMP DP  RH WIND       PRES   REMARKS
SAN JUAN LMM   MOSUNNY   81  66  61 SE8       30.00R
AGUADILLA      SUNNY     79  63  57 CALM      30.00R
CEIBA          SUNNY     79  70  73 S8        30.03R
$$

VIZ001>002-231500-
U.S. VIRGIN ISLANDS

CITY           SKY/WX    TMP DP  RH WIND       PRES   REMARKS
CHARLOTTE AMA  MOSUNNY   79  68  69 SE9       30.01R
$$

HOURLY WEATHER ROUNDUP FOR THE NEWS MEDIA

CITY           SKY/WX    TMP DP  RH WIND       PRES   REMARKS
ORLANDO        SUNNY     63  56  78 SW21G28   29.51R
NEW YORK       CLOUDY    42  34  73 NE30G37   29.84F
NEWARK         CLOUDY    42  32  67 E28G37    29.83F
CHICAGO        CLOUDY    38  35  89 N12       29.74R WCI  30
HARTFORD       CLOUDY    39  30  70 NE16G31   29.98R WCI  30
DALLAS         CLEAR     43  34  70 VRB3      30.00R
PHILADELPHIA   LGT RAIN  41  36  81 E24G44    29.70R
LOS ANGELES    MOCLDY    54  45  71 W23G31    29.88R
WASHINGTON DC  LGT RAIN  45  41  86 NE26G39   29.48F FOG



USA.gov is the U.S. government's official web portal to all federal, state and local government web resources and services.